Location: Cochran
(32.3868°N, 83.3546°W)
Time: 00:28:13
(UTC+00:00)

STARLINK-75 - Pass Details

Date: 18 February 2020
Orbit: 389 x 401 km, 53.0° (Epoch: 28 March)

Event Time Altitude Azimuth Distance (km) Brightness Sun altitude
Rises 23:29:28 0° 232° (SW) 2,307 8.1 -2.5°
Reaches altitude 10° 23:31:34 10° 237° (WSW) 1,452 7.2 -2.9°
Maximum altitude 23:34:45 54° 315° (NW) 496 3.7 -3.5°
Drops below altitude 10° 23:37:58 10° 35° (NE) 1,460 5.4 -4.2°
Enters shadow 23:40:05 - 40° (NE) 2,319 6.3 -4.6°
